Location: Sungai Bunut
(2.6333°N, 113.7333°E)
Time: 18:36:17
(UTC+00:00)

Cosmos 1125 Rocket - Pass Details

Date: 16 October 2021
Orbit: 758 x 779 km, 74.0° (Epoch: 07 December)

Event Time Altitude Azimuth Distance (km) Brightness Sun altitude
Rises 21:30:56 0° 350° (N) 3,199 6.5 -10.2°
Reaches altitude 10° 21:33:17 10° 351° (N) 2,277 5.8 -9.6°
Maximum altitude 21:38:27 80° 78° (ENE) 772 3.6 -8.3°
Drops below altitude 10° 21:43:39 10° 165° (SSE) 2,293 6.3 -7.0°
Sets 21:46:02 0° 166° (SSE) 3,223 7.1 -6.5°
